Regional Weather Roundup
Issued by NWS

Home | Current Version | Previous Version | Graphics & Text | Print | Product List | Glossary On
Versions: 1 2 3 4 5 6 7 8 9 10 11 12 13 14 15 16 17 18 19 20 21 22 23 24 25 26 27 28 29 30 31 32 33 34 35 36 37 38 39 40 41 42 43 44 45 46 47 48 49 50
000
ASUS43 KOAX 311302
RWRNE

WEATHER ROUNDUP FOR NEBRASKA
NATIONAL WEATHER SERVICE OMAHA NE
700 AM CST SAT JAN 31 2015

NOTES: SATELLITE DATA IS BEING USED TO AUGMENT CLOUD COVER ABOVE
       12000 FEET.
       "FAIR" INDICATES FEW OR NO CLOUDS BELOW 12,000 FEET WITH NO
       SIGNIFICANT WEATHER AND/OR OBSTRUCTIONS TO VISIBILITY.

  * THESE STATIONS DO NOT REPORT WEATHER SUCH AS RAIN...SNOW OR FOG.

NEZ001>004-019>022-054>056-311400-
NEBRASKA PANHANDLE

CITY           SKY/WX    TMP DP  RH WIND       PRES   REMARKS
SCOTTSBLUFF    CLOUDY    31  28  89 NW5       29.94F WCI  26
ALLIANCE       CLOUDY    30  27  88 CALM      29.94F
CHADRON        CLOUDY    27  24  89 CALM      29.99F
SIDNEY         FLURRIES  31  28  89 N8        29.91F WCI  23
$$

NEZ057>060-069>072-079>082-311400-
SOUTHWEST NEBRASKA

CITY           SKY/WX    TMP DP  RH WIND       PRES   REMARKS
NORTH PLATTE   CLOUDY    33  31  92 E5        29.98F WCI  29
IMPERIAL       CLOUDY    32  31  96 E6        29.94F FOG     WCI  26
MCCOOK         CLOUDY    34  32  92 SE7       29.97F FOG     WCI  28
$$

NEZ005>010-023>029-035>040-094-311400-
NORTH CENTRAL NEBRASKA

CITY           SKY/WX    TMP DP  RH WIND       PRES   REMARKS
VALENTINE      CLOUDY    29  24  82 NE9       30.01R WCI  20
BROKEN BOW     CLOUDY    35  32  88 S6        30.01F WCI  30
ORD            CLOUDY    35  31  85 S8        30.04S WCI  29
$$

NEZ041-046>049-061>064-073>077-083>087-311400-
SOUTH CENTRAL NEBRASKA

CITY           SKY/WX    TMP DP  RH WIND       PRES   REMARKS
GRAND ISLAND   LGT SNOW  32  31  96 S10       30.08F FOG     WCI  24
HASTINGS       LGT SNOW  32  30  92 S10       30.07F FOG     WCI  24
KEARNEY *      CLOUDY    32  30  93 S9        30.05S WCI  24
$$

NEZ011>018-030>034-042>045-311400-
NORTHEAST NEBRASKA

CITY           SKY/WX    TMP DP  RH WIND       PRES   REMARKS
NORFOLK        CLOUDY    36  33  89 S8        30.08S WCI  30
COLUMBUS *     CLOUDY    36  28  75 S10       30.12F WCI  28
TEKAMAH        CLOUDY    36  32  85 S9        30.14F WCI  29
$$

NEZ050>053-065>068-078-088>093-311400-
SOUTHEAST NEBRASKA

CITY           SKY/WX    TMP DP  RH WIND       PRES   REMARKS
LINCOLN        LGT RAIN  35  33  92 S12       30.16F WCI  27
OMAHA EPPLEY   CLOUDY    36  31  82 SE10      30.17F WCI  28
FALLS CITY     RAIN      35  33  92 S7        30.22F FOG     WCI  29
$$

NEZ044-045-051>053-067-311400-
OMAHA AREA

CITY           SKY/WX    TMP DP  RH WIND       PRES   REMARKS
OMAHA EPPLEY   CLOUDY    36  31  82 SE10      30.17F WCI  28
OFFUTT AFB     LGT RAIN  36  35  93 S6        30.17F WCI  32
$$



USA.gov is the U.S. government's official web portal to all federal, state and local government web resources and services.